Voltar ao catálogo

STARLINK-36528

AtivoComunicaçõesVLEO
NORAD 67458·PAYLOAD·🇺🇸 United States

Lançado Jan 14, 2026 de Cape Canaveral Space Force Station

Loading…

Próximas Passagens (próximas 24 horas)

TLE

AtualizadoSource: CelesTrak SupGP

Época: Sep 15, 2026, 03:51 UTC

1 67458C 26008P   26258.16090278 -.00069519  00000+0 -25186-2 0  2585
2 67458  42.9997 214.8001 0001341 274.2736  92.2050 15.27604710    10

Acompanhe STARLINK-36528 em tempo real com AllMySat

Download on the App Store